Location: Faicchio
(41.2833°N, 14.4833°E)
Time: 07:15:54
(UTC+00:00)

CZ-2D R/B - Pass Details

Date: 15 June 2025
Orbit: 789 x 842 km, 98.8° (Epoch: 16 July)

Event Time Altitude Azimuth Distance (km) Brightness Sun altitude
Rises 01:57:41 0° 8° (N) 3,385 6.4 -13.7°
Reaches altitude 10° 02:00:07 10° 3° (N) 2,440 5.4 -13.4°
Maximum altitude 02:05:18 49° 290° (WNW) 1,046 2.5 -12.8°
Enters shadow 02:09:13 17° 221° (SW) 1,958 3.4 -12.3°
